Wolf Creek Pass, CO

9:31 PM MDT on May 24, 2017 (GMT -0600)
Wolf Creek Pass

Weather History for KCPW - January, 2014

Change the Weather History Date:

Sunday, January 26, 2014

  Actual Average (KALS) Record (KALS)
Temperature  
Mean Temperature 24 °F -  
Max Temperature 30 °F 36 °F 57 °F (1982)
Min Temperature 17 °F 0 °F -24 °F (1966)
Degree Days  
Heating Degree Days 42    
Moisture  
Dew Point 8 °F    
Average Humidity 52    
Maximum Humidity 74    
Minimum Humidity 33    
Precipitation  
Precipitation 0.00 in - - ()
Sea Level Pressure  
Sea Level Pressure 30.10 in    
Wind  
Wind Speed 6 mph (SW)    
Max Wind Speed 17 mph    
Max Gust Speed 21 mph    
Visibility 10 miles    
Events      
Averages and records for this station are not official NWS values.
T = Trace of Precipitation, MM = Missing Value Source: NWS Daily Summary

Daily Weather History Graph

Daily Weather History Graph

Search for Another Location

Airport or City:

Trip Planner

Search our weather history database for the weather conditions in past years. The results will help you decide how hot, cold, wet, or windy it might be!

Date:

Astronomy

Jan. 26, 2014 Rise Set
Actual Time 7:15 AM MST 5:24 PM MST
Civil Twilight 6:47 AM MST 5:52 PM MST
Nautical Twilight 6:15 AM MST 6:24 PM MST
Astronomical Twilight 5:44 AM MST 6:55 PM MST
Moon 2:55 AM MST (1/26) 1:17 PM MST (1/26)
Length of Visible Light 11h 05m
Length of Day
10h 09m
Waning Crescent, 23% of the Moon is Illuminated
Jan 26
Waning Crescent
Jan 30
New
Feb 6
First Quarter
Feb 14
Full
Feb 22
Last Quarter

Hourly Weather History & Observations

Time (MST) Temp. Windchill Dew Point Humidity Pressure Visibility Wind Dir Wind Speed Gust Speed Precip Events Conditions
12:18 AM 24.8 °F 20.5 °F 6.8 °F 46% 30.19 in 10.0 mi NNE 3.5 mph - N/A   Clear
12:38 AM 23.0 °F - 6.8 °F 50% 30.19 in 10.0 mi Calm Calm - N/A   Clear
12:58 AM 23.0 °F 15.8 °F 6.8 °F 50% 30.17 in 10.0 mi NE 5.8 mph - N/A   Clear
1:18 AM 21.2 °F - 6.8 °F 54% 30.17 in 10.0 mi Calm Calm - N/A   Clear
1:38 AM 23.0 °F - 8.6 °F 54% 30.16 in 10.0 mi Calm Calm - N/A   Clear
1:58 AM 23.0 °F 17.0 °F 8.6 °F 54% 30.16 in 10.0 mi WNW 4.6 mph - N/A   Clear
2:18 AM 23.0 °F - 8.6 °F 54% 30.17 in 10.0 mi Calm Calm - N/A   Clear
2:38 AM 23.0 °F 18.4 °F 8.6 °F 54% 30.17 in 10.0 mi SSW 3.5 mph - N/A   Clear
2:58 AM 23.0 °F - 8.6 °F 54% 30.16 in 10.0 mi Calm Calm - N/A   Clear
3:18 AM 23.0 °F - 8.6 °F 54% 30.15 in 10.0 mi Calm Calm - N/A   Clear
3:38 AM 23.0 °F 17.0 °F 8.6 °F 54% 30.15 in 10.0 mi SW 4.6 mph - N/A   Clear
3:58 AM 23.0 °F - 6.8 °F 50% 30.14 in 10.0 mi Calm Calm - N/A   Clear
4:18 AM 23.0 °F 17.0 °F 8.6 °F 54% 30.14 in 10.0 mi SW 4.6 mph - N/A   Clear
4:38 AM 23.0 °F 18.4 °F 5.0 °F 46% 30.13 in 10.0 mi West 3.5 mph - N/A   Clear
4:58 AM 21.2 °F - 6.8 °F 54% 30.12 in 10.0 mi Calm Calm - N/A   Clear
5:18 AM 23.0 °F 15.8 °F 5.0 °F 46% 30.12 in 10.0 mi NNW 5.8 mph - N/A   Clear
5:38 AM 21.2 °F 16.4 °F 5.0 °F 50% 30.12 in 10.0 mi NW 3.5 mph - N/A   Clear
5:58 AM 21.2 °F 14.9 °F 3.2 °F 46% 30.12 in 10.0 mi North 4.6 mph - N/A   Clear
6:18 AM 23.0 °F 14.7 °F 1.4 °F 39% 30.12 in 10.0 mi NNW 6.9 mph - N/A   Clear
6:38 AM 23.0 °F 13.9 °F -0.4 °F 36% 30.11 in 10.0 mi West 8.1 mph - N/A   Clear
6:58 AM 23.0 °F 13.1 °F -2.2 °F 33% 30.11 in 10.0 mi NW 9.2 mph - N/A   Clear
7:18 AM 23.0 °F 15.8 °F -2.2 °F 33% 30.12 in 10.0 mi WNW 5.8 mph - N/A   Clear
7:38 AM 23.0 °F 13.1 °F -0.4 °F 36% 30.12 in 10.0 mi WSW 9.2 mph - N/A   Clear
7:58 AM 23.0 °F 10.6 °F 1.4 °F 39% 30.12 in 10.0 mi WSW 13.8 mph - N/A   Clear
8:18 AM 23.0 °F 10.6 °F 3.2 °F 43% 30.12 in 10.0 mi WSW 13.8 mph - N/A   Clear
8:38 AM 24.8 °F 13.4 °F 3.2 °F 40% 30.12 in 10.0 mi SW 12.7 mph 20.7 mph N/A   Clear
8:58 AM 26.6 °F 15.2 °F 5.0 °F 40% 30.12 in 10.0 mi SW 13.8 mph 19.6 mph N/A   Clear
9:18 AM 26.6 °F 16.2 °F 6.8 °F 43% 30.12 in 10.0 mi SW 11.5 mph 16.1 mph N/A   Clear
9:38 AM 26.6 °F 13.8 °F 8.6 °F 47% 30.12 in 10.0 mi SW 17.3 mph - N/A   Clear
9:58 AM 26.6 °F 14.7 °F 8.6 °F 47% 30.13 in 10.0 mi SSW 15.0 mph 20.7 mph N/A   Clear
10:18 AM 26.6 °F 14.7 °F 8.6 °F 47% 30.13 in 10.0 mi SSW 15.0 mph 19.6 mph N/A   Clear
10:38 AM 28.4 °F 18.0 °F 8.6 °F 43% 30.12 in 10.0 mi SSW 12.7 mph 17.3 mph N/A   Clear
10:58 AM 28.4 °F 19.7 °F 10.4 °F 47% 30.12 in 10.0 mi SSW 9.2 mph - N/A   Clear
11:18 AM 28.4 °F 21.2 °F 10.4 °F 47% 30.12 in 10.0 mi SSW 6.9 mph - N/A   Clear
11:38 AM 30.2 °F 24.3 °F 10.4 °F 44% 30.12 in 10.0 mi South 5.8 mph - N/A   Clear
11:58 AM 28.4 °F 21.2 °F 10.4 °F 47% 30.11 in 10.0 mi SSW 6.9 mph - N/A   Clear
12:18 PM 30.2 °F 21.9 °F 10.4 °F 44% 30.10 in 10.0 mi SSW 9.2 mph - N/A   Clear
12:38 PM 30.2 °F 24.3 °F 12.2 °F 47% 30.09 in 10.0 mi South 5.8 mph - N/A   Clear
12:58 PM 30.2 °F 23.4 °F 12.2 °F 47% 30.08 in 10.0 mi SW 6.9 mph - N/A   Clear
1:18 PM 30.2 °F 21.3 °F 12.2 °F 47% 30.07 in 10.0 mi SSW 10.4 mph - N/A   Clear
1:38 PM 30.2 °F 20.8 °F 12.2 °F 47% 30.06 in 10.0 mi SW 11.5 mph 19.6 mph N/A   Clear
1:58 PM 30.2 °F 20.2 °F 14.0 °F 51% 30.05 in 10.0 mi SSW 12.7 mph 18.4 mph N/A   Clear
2:18 PM 30.2 °F 21.9 °F 14.0 °F 51% 30.05 in 10.0 mi SSW 9.2 mph 19.6 mph N/A   Scattered Clouds
2:38 PM 30.2 °F 20.2 °F 14.0 °F 51% 30.05 in 10.0 mi SSW 12.7 mph 18.4 mph N/A   Clear
2:58 PM 30.2 °F 23.4 °F 14.0 °F 51% 30.05 in 10.0 mi SSW 6.9 mph - N/A   Scattered Clouds
3:18 PM 30.2 °F 20.8 °F 14.0 °F 51% 30.05 in 10.0 mi SW 11.5 mph - N/A   Scattered Clouds
3:38 PM 30.2 °F 23.4 °F 14.0 °F 51% 30.05 in 10.0 mi SSW 6.9 mph - N/A   Clear
3:58 PM 30.2 °F 23.4 °F 14.0 °F 51% 30.05 in 10.0 mi SSW 6.9 mph - N/A   Scattered Clouds
4:18 PM 28.4 °F 19.7 °F 14.0 °F 55% 30.05 in 10.0 mi SSW 9.2 mph - N/A   Scattered Clouds
4:38 PM 28.4 °F 20.4 °F 14.0 °F 55% 30.05 in 10.0 mi SSW 8.1 mph - N/A   Clear
4:58 PM 26.6 °F 21.2 °F 14.0 °F 59% 30.05 in 10.0 mi SSW 4.6 mph - N/A   Clear
5:18 PM 24.8 °F 19.1 °F 14.0 °F 64% 30.05 in 10.0 mi WSW 4.6 mph - N/A   Clear
5:38 PM 23.0 °F 15.8 °F 14.0 °F 68% 30.05 in 10.0 mi WSW 5.8 mph - N/A   Clear
5:58 PM 21.2 °F 10.9 °F 12.2 °F 68% 30.06 in 10.0 mi West 9.2 mph - N/A   Clear
6:18 PM 21.2 °F 12.6 °F 12.2 °F 68% 30.07 in 10.0 mi WSW 6.9 mph - N/A   Clear
6:38 PM 21.2 °F 14.9 °F 12.2 °F 68% 30.07 in 10.0 mi SW 4.6 mph - N/A   Clear
6:58 PM 23.0 °F 17.0 °F 12.2 °F 63% 30.07 in 10.0 mi West 4.6 mph - N/A   Clear
7:18 PM 21.2 °F 13.6 °F 12.2 °F 68% 30.07 in 10.0 mi WNW 5.8 mph - N/A   Clear
7:38 PM 19.4 °F 7.2 °F 10.4 °F 68% 30.07 in 10.0 mi SSW 11.5 mph - N/A   Clear
7:58 PM 17.6 °F 5.0 °F 10.4 °F 73% 30.08 in 10.0 mi SSW 11.5 mph - N/A   Clear
8:18 PM 17.6 °F 12.3 °F 10.4 °F 73% 30.08 in 10.0 mi SW 3.5 mph - N/A   Clear
8:38 PM 19.4 °F 12.8 °F 12.2 °F 74% 30.08 in 10.0 mi South 4.6 mph - N/A   Clear
8:58 PM 21.2 °F - 10.4 °F 63% 30.07 in 10.0 mi Calm Calm - N/A   Clear
9:18 PM 21.2 °F - 8.6 °F 58% 30.07 in 10.0 mi Calm Calm - N/A   Clear
9:38 PM 21.2 °F 13.6 °F 6.8 °F 54% 30.07 in 10.0 mi NNW 5.8 mph - N/A   Clear
9:58 PM 21.2 °F 14.9 °F 6.8 °F 54% 30.07 in 10.0 mi North 4.6 mph - N/A   Clear
10:18 PM 19.4 °F 10.4 °F 8.6 °F 63% 30.07 in 10.0 mi NE 6.9 mph - N/A   Clear
10:38 PM 19.4 °F 14.3 °F 6.8 °F 58% 30.07 in 10.0 mi NE 3.5 mph - N/A   Clear
10:58 PM 21.2 °F - 3.2 °F 46% 30.06 in 10.0 mi Calm Calm - N/A   Clear
11:18 PM 19.4 °F 9.5 °F 3.2 °F 49% 30.06 in 10.0 mi West 8.1 mph - N/A   Clear
11:38 PM 21.2 °F 10.1 °F 1.4 °F 42% 30.06 in 10.0 mi WSW 10.4 mph - N/A   Clear
11:58 PM 21.2 °F 10.9 °F 3.2 °F 46% 30.06 in 10.0 mi WSW 9.2 mph - N/A   Clear